Weather History for Boscobel, WI

Change the Weather History Date:

Tuesday, February 12, 2013

  Actual Average (KPDC) Record (KPDC)
Temperature  
Mean Temperature 26 °F -  
Max Temperature 35 °F 32 °F 61 °F (1976)
Min Temperature 17 °F 11 °F -12 °F (1981)
Degree Days  
Heating Degree Days 39    
Moisture  
Dew Point 18 °F    
Average Humidity 78    
Maximum Humidity 93    
Minimum Humidity 59    
Precipitation  
Precipitation 0.00 in - - ()
Sea Level Pressure  
Sea Level Pressure 29.99 in    
Wind  
Wind Speed 6 mph (SW)    
Max Wind Speed 10 mph    
Max Gust Speed 17 mph    
Visibility 7 miles    
Events      
Averages and records for this station are not official NWS values.
T = Trace of Precipitation, MM = Missing Value Source: NWS Daily Summary

Daily Weather History Graph

Daily Weather History Graph

Search for Another Location

Airport:

Trip Planner

Search our weather history database for the weather conditions in past years. The results will help you decide how hot, cold, wet, or windy it might be!

Date:

Astronomy

Feb. 12, 2013 Rise Set
Actual Time 7:04 AM CST 5:30 PM CST
Civil Twilight 6:34 AM CST 5:59 PM CST
Nautical Twilight 6:01 AM CST 6:33 PM CST
Astronomical Twilight 5:28 AM CST 7:06 PM CST
Moon 7:55 AM CST (2/12) 8:37 PM CST (2/12)
Length of Visible Light 11h 24m
Length of Day
10h 25m
Waxing Crescent, 7% of the Moon is Illuminated
Feb 12
Waxing Crescent
Feb 17
First Quarter
Feb 25
Full
Mar 4
Last Quarter
Mar 11
New

Hourly Weather History & Observations

Time (CST) Temp. Windchill Dew Point Humidity Pressure Visibility Wind Dir Wind Speed Gust Speed Precip Events Conditions
12:53 AM 23.0 °F 12.4 °F 14.0 °F 68% 30.09 in 10.0 mi West 10.4 mph 17.3 mph N/A   Overcast
1:53 AM 23.0 °F 13.1 °F 15.1 °F 72% 30.12 in 10.0 mi West 9.2 mph - N/A   Overcast
2:53 AM 23.0 °F 14.7 °F 15.1 °F 72% 30.11 in 10.0 mi West 6.9 mph - N/A   Overcast
3:53 AM 24.1 °F 16.0 °F 15.1 °F 69% 30.11 in 10.0 mi West 6.9 mph 17.3 mph N/A   Overcast
4:53 AM 23.0 °F 14.7 °F 15.1 °F 72% 30.10 in 10.0 mi WSW 6.9 mph - N/A   Overcast
5:53 AM 23.0 °F 14.7 °F 14.0 °F 68% 30.10 in 10.0 mi Variable 6.9 mph - N/A   Overcast
6:53 AM 21.0 °F 12.4 °F 14.0 °F 74% 30.11 in 10.0 mi WSW 6.9 mph - N/A   Mostly Cloudy
7:53 AM 21.9 °F 14.5 °F 15.1 °F 75% 30.13 in 10.0 mi SW 5.8 mph - N/A   Overcast
8:53 AM 23.0 °F - 16.0 °F 74% 30.12 in 10.0 mi Calm Calm - N/A   Overcast
9:53 AM 24.1 °F 18.2 °F 17.1 °F 75% 30.11 in 10.0 mi SW 4.6 mph - N/A   Overcast
10:53 AM 26.1 °F 20.5 °F 18.0 °F 71% 30.09 in 10.0 mi SSW 4.6 mph - N/A   Overcast
11:53 AM 28.9 °F 19.8 °F 19.0 °F 67% 30.07 in 10.0 mi SW 10.4 mph - N/A   Mostly Cloudy
12:01 PM 28.4 °F 20.4 °F 19.4 °F 69% 30.03 in 10.0 mi SSW 8.1 mph - N/A   Scattered Clouds
12:14 PM 30.2 °F 22.6 °F 19.4 °F 64% 30.02 in 10.0 mi SW 8.1 mph - N/A   Mostly Cloudy
12:53 PM 30.9 °F 24.3 °F 19.9 °F 64% 30.04 in 10.0 mi SSW 6.9 mph - N/A   Scattered Clouds
1:53 PM 32.0 °F 23.6 °F 21.0 °F 64% 30.01 in 10.0 mi SW 10.4 mph - N/A   Clear
2:53 PM 34.0 °F 28.0 °F 21.9 °F 61% 29.98 in 10.0 mi SW 6.9 mph - N/A   Clear
3:53 PM 35.1 °F 30.1 °F 21.9 °F 59% 29.97 in 10.0 mi SSW 5.8 mph - N/A   Clear
4:53 PM 34.0 °F 28.0 °F 23.0 °F 64% 29.95 in 10.0 mi South 6.9 mph - N/A   Clear
5:53 PM 32.0 °F 27.5 °F 21.9 °F 66% 29.95 in 10.0 mi South 4.6 mph - N/A   Clear
6:53 PM 26.1 °F - 21.0 °F 81% 29.95 in 10.0 mi Calm Calm - N/A   Clear
7:53 PM 21.9 °F - 18.0 °F 85% 29.94 in 9.0 mi Calm Calm - N/A   Clear
8:11 PM 21.2 °F - 19.4 °F 93% 29.91 in 2.5 mi Calm Calm - N/A   Clear
8:18 PM 21.2 °F - 19.4 °F 93% 29.90 in 4.0 mi Calm Calm - N/A   Clear
8:53 PM 19.9 °F - 18.0 °F 92% 29.93 in 6.0 mi Calm Calm - N/A   Clear
9:26 PM 19.4 °F - 17.6 °F 93% 29.88 in 1.5 mi Calm Calm - N/A   Clear
9:31 PM 19.4 °F - 15.8 °F 86% 29.88 in 0.8 mi Calm Calm - N/A   Clear
9:37 PM 19.4 °F - 17.6 °F 93% 29.88 in 1.5 mi Calm Calm - N/A   Clear
9:50 PM 19.4 °F - 15.8 °F 86% 29.88 in 0.8 mi Calm Calm - N/A   Clear
9:53 PM 19.0 °F - 16.0 °F 88% 29.91 in 1.2 mi Calm Calm - N/A   Clear
10:03 PM 19.4 °F - 17.6 °F 93% 29.87 in 3.0 mi Calm Calm - N/A   Clear
10:19 PM 17.6 °F - 15.8 °F 93% 29.87 in 2.0 mi Calm Calm - N/A   Clear
10:53 PM 19.0 °F - 16.0 °F 88% 29.89 in 2.5 mi Calm Calm - N/A   Clear
11:05 PM 19.4 °F - 17.6 °F 93% 29.85 in 3.0 mi Calm Calm - N/A   Clear
11:53 PM 17.1 °F - 14.0 °F 88% 29.88 in 2.0 mi Calm Calm - N/A   Clear